ROMMA est une association bénévole à but non lucratif. Votre soutien est indispensable : ADHERER à ROMMA ou FAIRE un DON

Saint-Léger-les-Mélèzes - (05, Hautes-Alpes)

Champsaur (1245 m)   Longitude: 6° 11' 42" E    Latitude: 44° 38' 38" N Station partenaire n°51
 

Détail journalier du     <<     >>

Température Humidité Vent Dir Rafale Dir. rafale Ensol.
Heure (°C) (%) (km/h) (km/h) (min)
01:00 1.6513SSO6S0
02:00 1.7504S10S0
03:00 2.0495S10S0
04:00 1.8485S10S0
05:00 1.9505S10S0
06:00 2.0503S8S0
07:00 1.9514SSO10S0
08:00 2.1502S8S0
09:00 2.1535S8S0
10:00 4.4462S6S0
11:00 6.64003S0
12:00 9.13502S30
13:00 11.63103S60
14:00 12.2281S5SSO60
15:00 13.2301SSO5SO60
16:00 12.3303SSO6SSO50
17:00 9.3394SSO8SSO0
18:00 7.0456S10S0
19:00 5.7495S8S0
20:00 4.9493S6S0
21:00 4.5525S8S0
22:00 4.3523S8S0
23:00 3.6554S11S0
minuit 3.6534S8S0

Graphique du 14-02-2019

 

Serveur OMMA